N4DCI Weather Reports


Display with metric or nautical units.
time (UTC)temp
F
wind
direction
speed
MPH
gust
MPH
rain 1hr
in
rain 24hr
in
rain mn
in
humidity
%
barometer
mb
20260503220006 63 44 3.0 7.0 0.00 0.00 0.00 43 1017.8
20260503213004 63 196 2.0 3.0 0.00 0.00 0.00 43 1018.0
20260503211505 64 15 1.0 8.0 0.00 0.00 0.00 43 1018.2
20260503210005 64 26 4.0 10.0 0.00 0.00 0.00 44 1018.2
20260503204504 63 184 2.0 9.0 0.00 0.00 0.00 42 1018.2
20260503203005 65 58 2.0 10.0 0.00 0.00 0.00 43 1018.4
20260503201504 64 9 4.0 9.0 0.00 0.00 0.00 44 1018.6
20260503193004 65 48 1.0 7.0 0.00 0.00 0.00 46 1019.4
20260503191504 63 56 3.0 7.0 0.00 0.00 0.00 43 1019.5
20260503190004 63 110 4.0 10.0 0.00 0.00 0.00 43 1019.6
20260503184504 63 103 2.0 6.0 0.00 0.00 0.00 40 1019.7
20260503183006 64 54 3.0 6.0 0.00 0.00 0.00 41 1019.8
20260503181505 62 208 1.0 5.0 0.00 0.00 0.00 43 1020.1
20260503180006 62 175 2.0 6.0 0.00 0.00 0.00 42 1020.2
20260503173005 60 228 1.0 4.0 0.00 0.00 0.00 46 1020.6
20260503171504 59 223 2.0 4.0 0.00 0.00 0.00 46 1021.0
20260503071504 36 122 0.0 0.0 0.00 0.00 0.00 86 1018.6
20260503053005 38 123 0.0 0.0 0.00 0.00 0.00 82 1018.5
20260503051500 39 123 0.0 1.0 0.00 0.00 0.00 81 1018.5
20260503044505 40 123 0.0 0.0 0.00 0.00 0.00 78 1018.5
20260503043005 40 123 0.0 0.0 0.00 0.00 0.00 77 1018.4
20260503041505 41 123 0.0 0.0 0.00 0.00 0.00 75 1018.2
20260503040005 42 123 0.0 2.0 0.00 0.00 0.00 73 1017.9
20260503034504 43 123 0.0 0.0 0.00 0.00 0.00 71 1017.8
20260503033006 43 123 0.0 0.0 0.00 0.00 0.00 68 1017.7
20260503031505 44 123 0.0 0.0 0.00 0.00 0.00 66 1017.7
20260503030005 46 124 0.0 0.0 0.00 0.00 0.00 65 1017.6
20260503024504 47 124 0.0 0.0 0.00 0.00 0.00 62 1017.4
20260503023004 48 124 0.0 0.0 0.00 0.00 0.00 58 1017.4
20260503021505 49 69 0.0 0.0 0.00 0.00 0.00 55 1017.3
20260503020005 49 68 1.0 6.0 0.00 0.00 0.00 54 1017.0
20260503014505 49 103 0.0 3.0 0.00 0.00 0.00 54 1016.9
20260503013005 49 140 0.0 1.0 0.00 0.00 0.00 53 1016.7
20260503010005 51 87 1.0 4.0 0.00 0.00 0.00 51 1016.1
20260503004504 52 116 0.0 4.0 0.00 0.00 0.00 48 1015.8
20260503003005 53 360 1.0 5.0 0.00 0.00 0.00 46 1015.6
20260503001505 53 229 1.0 6.0 0.00 0.00 0.00 45 1015.4
20260502234505 54 81 3.0 10.0 0.00 0.00 0.00 44 1014.9
20260502233006 55 132 2.0 9.0 0.00 0.00 0.00 42 1014.7
20260502231505 55 119 3.0 14.0 0.00 0.00 0.00 42 1014.4
20260502230006 55 339 3.0 7.0 0.00 0.00 0.00 41 1014.4
20260502224505 57 84 1.0 10.0 0.00 0.00 0.00 40 1014.4
20260502223004 58 31 5.0 11.0 0.00 0.00 0.00 39 1014.3
20260502221505 57 132 4.0 8.0 0.00 0.00 0.00 41 1014.1